White Plains, CT

8:43 AM EST on February 22, 2018 (GMT -0500)
Westchester County

Weather History for KHPN - August, 2011

Change the Weather History Date:

Sunday, August 7, 2011

  Actual Average Record
Temperature  
Mean Temperature 79 °F -  
Max Temperature 87 °F 80 °F 95 °F (2001)
Min Temperature 71 °F 63 °F 55 °F (1979)
Cooling Degree Days 14    
Growing Degree Days 29 (Base 50)    
Moisture  
Dew Point 71 °F    
Average Humidity 83    
Maximum Humidity 94    
Minimum Humidity 57    
Precipitation  
Precipitation 0.81 in - - ()
Sea Level Pressure  
Sea Level Pressure 29.67 in    
Wind  
Wind Speed 6 mph (SSW)    
Max Wind Speed 23 mph    
Max Gust Speed 32 mph    
Visibility 6 miles    
Events Rain , Thunderstorm    
Averages and records for this station are not official NWS values.
T = Trace of Precipitation, MM = Missing Value Source: NWS Daily Summary

Daily Weather History Graph

Daily Weather History Graph

Search for Another Location

Airport or City:

Trip Planner

Search our weather history database for the weather conditions in past years. The results will help you decide how hot, cold, wet, or windy it might be!

Date:

Astronomy

Aug. 07, 2011 Rise Set
Actual Time 5:56 AM EDT 8:04 PM EDT
Civil Twilight 5:25 AM EDT 8:34 PM EDT
Nautical Twilight 4:48 AM EDT 9:11 PM EDT
Astronomical Twilight 4:07 AM EDT 9:52 PM EDT
Moon 3:15 PM EDT (8/7) No Moon Set
Length of Visible Light 15h 08m
Length of Day
14h 08m
Waxing Gibbous, 63% of the Moon is Illuminated
Aug 7
Waxing Gibbous
Aug 13
Full
Aug 21
Last Quarter
Aug 28
New
Sep 4
First Quarter

Hourly Weather History & Observations

Time (EDT) Temp. Heat Index Dew Point Humidity Pressure Visibility Wind Dir Wind Speed Gust Speed Precip Events Conditions
12:56 AM 72.0 °F - 68.0 °F 87% 29.84 in 4.0 mi South 8.1 mph 20.7 mph 0.04 in Rain Light Rain
1:28 AM 71.6 °F - 69.8 °F 94% 29.85 in 8.0 mi South 4.6 mph - 0.00 in Rain Light Rain
1:56 AM 73.0 °F - 71.1 °F 93% 29.82 in 4.0 mi South 5.8 mph - 0.01 in Rain Light Rain
2:56 AM 73.0 °F - 71.1 °F 93% 29.79 in 4.0 mi South 5.8 mph - 0.12 in Rain Rain
3:56 AM 73.0 °F - 71.1 °F 93% 29.78 in 4.0 mi SSE 6.9 mph - 0.08 in   Overcast
4:56 AM 73.0 °F - 71.1 °F 93% 29.76 in 6.0 mi SE 4.6 mph - 0.04 in Rain Light Rain
5:56 AM 73.0 °F - 71.1 °F 93% 29.75 in 2.5 mi South 4.6 mph - 0.13 in Rain Light Rain
6:56 AM 73.9 °F - 72.0 °F 93% 29.73 in 1.5 mi South 4.6 mph - 0.16 in Rain Light Rain
7:56 AM 73.9 °F - 72.0 °F 93% 29.72 in 2.5 mi South 4.6 mph - 0.06 in Rain Light Rain
8:54 AM 75.2 °F - 73.4 °F 94% 29.71 in 1.2 mi Variable 4.6 mph - 0.04 in Rain Rain
8:56 AM 75.0 °F - 73.0 °F 94% 29.70 in 1.2 mi South 5.8 mph - 0.04 in Rain Rain
9:56 AM 75.9 °F - 73.0 °F 91% 29.70 in 6.0 mi Calm Calm - 0.02 in   Overcast
10:36 AM 77.0 °F - 73.4 °F 89% 29.71 in 8.0 mi West 6.9 mph - N/A   Mostly Cloudy
10:56 AM 78.1 °F - 73.0 °F 84% 29.70 in 8.0 mi WSW 9.2 mph - N/A   Mostly Cloudy
11:56 AM 81.0 °F 85.2 °F 72.0 °F 74% 29.68 in 10.0 mi Variable 6.9 mph - N/A   Mostly Cloudy
12:56 PM 84.0 °F 89.6 °F 72.0 °F 67% 29.66 in 9.0 mi Variable 3.5 mph - N/A   Mostly Cloudy
1:56 PM 84.0 °F 88.4 °F 70.0 °F 63% 29.64 in 6.0 mi WSW 8.1 mph - N/A   Haze
2:56 PM 84.9 °F 89.4 °F 70.0 °F 61% 29.62 in 6.0 mi Variable 3.5 mph - N/A   Haze
3:56 PM 87.1 °F 92.0 °F 70.0 °F 57% 29.58 in 6.0 mi Variable 4.6 mph - N/A   Haze
4:56 PM 87.1 °F 92.8 °F 71.1 °F 59% 29.57 in 6.0 mi WNW 6.9 mph - N/A   Haze
5:56 PM 84.0 °F 89.0 °F 71.1 °F 65% 29.56 in 6.0 mi West 4.6 mph - N/A   Haze
6:56 PM 82.0 °F 87.9 °F 73.9 °F 76% 29.55 in 5.0 mi South 3.5 mph - N/A   Haze
7:56 PM 81.0 °F 85.8 °F 73.0 °F 77% 29.55 in 7.0 mi South 3.5 mph - N/A   Haze
8:36 PM 78.8 °F - 73.4 °F 83% 29.60 in 6.0 mi NNW 23.0 mph 32.2 mph N/A Rain , Thunderstorm Thunderstorms and Rain
8:56 PM 75.0 °F - 69.1 °F 82% 29.58 in 3.0 mi WSW 6.9 mph - 0.06 in Rain , Thunderstorm Heavy Thunderstorms and Rain
9:56 PM 73.0 °F - 70.0 °F 90% 29.58 in 8.0 mi Calm Calm - 0.05 in Rain Light Rain
10:56 PM 72.0 °F - 70.0 °F 93% 29.55 in 8.0 mi Calm Calm - 0.00 in   Mostly Cloudy
11:56 PM 72.0 °F - 70.0 °F 93% 29.55 in 7.0 mi WNW 3.5 mph - N/A   Scattered Clouds